Погода в Лесовщине

Украина / Житомирская область     50°47′30″N   28°34′00″E
темп.,
°C
ветер,
м/с
пор.,
м/с
влажн.,
%
обл.,
%
осадки,
мм/ч
давл.,
гПа
погр.,
м
27 января, ср
ср2723:00−2зюз7148682 0.0 1007737
02:00−2з7128589 0.0 1008698
05:00−2з51088100 0.0 1008702
08:00−3з41191100 0.0 1008389
11:00−2зсз588885 0.0 1009554
14:00−1зсз468192 0.0 1008656
17:00−2зсз4686100 0.0 1008599
20:00−2сз3788100 0.1 1007530
28 января, чт
чт2823:00−2ссз4896100 0.0 1007367
02:00−2ссз5893100 0.0 1006454
05:00−2с5891100 0.0 1005563
08:00−1ссз5991100 0.1 1005663
11:00−1ссз6988100 0.1 1004663
14:000ссз5883100 0.1 1003831
17:00−1сз5888100 0.1 1003607
20:00−2сз4792100 0.1 1003470
29 января, пт
пт2923:00−4зсз4892100 0.1 1002296
02:00−5зсз3693100 0.1 1001243
05:00−6зюз479028 0.0 999252
08:00−3зюз489364 0.1 998412
11:00−1з6882100 0.2 9981032
14:00−1з7107283 0.3 9971209
17:00−4з6138411 0.0 998668
20:00−5з6138723 0.0 998588
30 января, сб
сб3023:00−5з5118982 0.0 998465
02:00−6зюз479275 0.0 998220
05:00−6зюз368989 0.0 998196
08:00−5ссз128695 0.0 997109
11:00−4ююв2286100 0.1 997258
14:00−3с1193100 0.6 996177
17:00−3с1296100 0.7 996132
20:00−4сз229793 0.8 99744
31 января, вс
вс3123:00−4ссз249798 0.4 997179
02:00−4сз359499 0.9 999306
05:00−6з369652 0.0 1000152
08:00−7з489641 0.0 1003204
11:00−5з478642 0.0 1005347
14:00−4зюз468521 0.0 1006417
17:00−7зюз37920 0.0 1006155
20:00−7зюз359015 0.0 1007132